Regional Weather Roundup
Issued by NWS

Home | Current Version | Previous Version | Text Only | Print | Product List | Glossary On
Versions: 1 2 3 4 5 6 7 8 9 10 11 12 13 14 15 16 17 18 19 20 21 22 23 24 25 26 27 28 29 30 31 32 33 34 35 36 37 38 39 40 41 42 43 44 45 46 47 48 49 50
000
ASUS43 KTOP 300308
RWRKS

WEATHER ROUNDUP FOR KANSAS
NATIONAL WEATHER SERVICE GOODLAND KS
1000 PM CDT FRI MAY 29 2015

NOTE:  "FAIR" INDICATES FEW OR NO CLOUDS BELOW 12,000 FEET WITH NO
SIGNIFICANT WEATHER AND/OR OBSTRUCTIONS TO VISIBILITY.

KSZ001>006-013>018-027>032-041>047-300400-
NORTHWEST KANSAS

CITY           SKY/WX    TMP DP  RH WIND       PRES   REMARKS
GOODLAND       CLOUDY    53  48  83 N14       30.22R
HAYS           PTCLDY    59  48  67 N23G31    30.09R
HILL CITY      CLOUDY    58  52  80 N16G24    30.16R
RUSSELL        CLOUDY    59  57  93 NW16      30.06R
$$

KSZ061>065-074>080-084>089-300400-
SOUTHWEST KANSAS

CITY           SKY/WX    TMP DP  RH WIND       PRES   REMARKS
DODGE CITY     MOCLDY    61  54  77 N14       30.09R
ELKHART          N/A     62  51  67 N10         N/A
GARDEN CITY    MOCLDY    58  54  86 N14       30.12R
GREAT BEND     MOCLDY    61  54  77 N13G20    30.05R
LIBERAL        MOCLDY    64  52  63 N14       30.13R
PRATT          MOCLDY    63  54  72 N17G25    30.05R
$$

KSZ066>073-081>083-090>101-300400-
SOUTHEAST KANSAS

CITY           SKY/WX    TMP DP  RH WIND       PRES   REMARKS
CHANUTE        CLOUDY    66  65  96 SE3       29.98R
COFFEYVILLE    CLOUDY    65  64  97 CALM      29.96R
HUTCHINSON     MOCLDY    68  57  68 N28G36    30.01R
MEDICINE LODGE   N/A     69  62  78 N5        29.99R
NEWTON         CLOUDY    68  61  77 CALM      30.01R
PARSONS        CLOUDY    67  67 100 CALM      29.99R
WICHITA INTL   CLOUDY    72  65  78 CALM      29.98R
WICHITA JABRA  CLOUDY    70  64  81 SW5       29.98R
WICHITA MCCONL CLOUDY    71  64  79 CALM      29.98R
WINFIELD       CLOUDY    71  65  81 E3        29.98R
$$

KSZ007>012-019>026-033>040-048>060-102>105-300400-
NORTHEAST KANSAS

CITY           SKY/WX    TMP DP  RH WIND       PRES   REMARKS
CONCORDIA      RAIN      57  54  89 N21G30    30.05F FOG
EMPORIA        CLOUDY    65  64  97 S5        29.98R
LAWRENCE       CLOUDY    65  63  93 CALM      29.97R
MANHATTAN      CLOUDY    69  63  81 W5        29.97R
MARYSVILLE     HVY RAIN  61  59  94 NW26G37   30.03R
OLATHE IND     CLOUDY    65  64  97 S3        29.99R
OLATHE EXE     CLOUDY    65  65 100 SE3       29.98R
SALINA         CLOUDY    64  55  72 N23G35    30.03R
TOPEKA BILLARD CLOUDY    67  65  93 SE3       29.97R
TOPEKA FORBES  CLOUDY    68  64  87 SE3       29.97R
$$


USA.gov is the U.S. government's official web portal to all federal, state and local government web resources and services.